{"data":{"norad_id":61058,"intl_designator":"2024-164J","name":"STARLINK-11299 [DTC]","alt_names":[],"object_type":"PAYLOAD","status":"ACTIVE","operator":null,"country":"US","launch_date":"2024-09-13","launch_site_code":"AFWTR","launch_vehicle":null,"mission":null,"orbit_class":"UNKNOWN","rcs_meters":null,"size_class":null,"mass_kg":null,"dimensions":null,"purposes":["comms"],"wikipedia_slug":null,"has_3d_model":false,"image_url":null,"decayed_at":null,"tle_current":{"epoch":"2026-05-24T19:56:25.680192Z","epoch_age_seconds":83589,"freshness":"FRESH","line1":"1 61058U 24164J   26144.83085278  .00000478  00000+0  88043-5 0  9991","line2":"2 61058  53.1586 296.2131 0000759 100.8248 259.2856 15.69699730 97376","mean_motion":15.6969973,"eccentricity":7.59e-5,"inclination_deg":53.1586,"raan_deg":296.2131,"arg_perigee_deg":100.8248,"mean_anomaly_deg":259.2856,"bstar":8.8043e-6,"rev_number":9737,"period_min":91.737290417958,"perigee_km":359.24473329959,"apogee_km":360.26754547815,"semimajor_km":6737.8931393889,"source":"CELESTRAK","updated_at":"2026-05-25T13:38:19.354937Z"}}}